Location: Monrovia
(34.7865°N, 86.7139°W)
Time: 00:46:58
(UTC+00:00)

Cosmos 2221 - Pass Details

Date: 14 July 2020
Orbit: 592 x 617 km, 82.5° (Epoch: 12 August)

Event Time Altitude Azimuth Distance (km) Brightness Sun altitude
Rises 03:28:30 0° 345° (NNW) 2,873 7.1 -24.0°
Reaches altitude 10° 03:30:48 10° 339° (NNW) 1,960 6.1 -24.3°
Maximum altitude 03:34:54 43° 268° (W) 851 3.4 -24.8°
Enters shadow 03:35:30 40° 244° (WSW) 889 3.3 -24.9°
